Weather History for Gillette, WY

Change the Weather History Date:

Wednesday, August 14, 2013

  Actual Average Record
Temperature  
Mean Temperature 70 °F 70 °F  
Max Temperature 84 °F 87 °F 100 °F (1937)
Min Temperature 56 °F 54 °F 42 °F (2004)
Degree Days  
Heating Degree Days 0 1  
Month to date heating degree days 0 11  
Since 1 June heating degree days 117 172  
Since 1 July heating degree days 0 30  
Cooling Degree Days 5 6  
Month to date cooling degree days 76 99  
Year to date cooling degree days 348 381  
Since 1 June cooling degree days 340 373  
Growing Degree Days 20 (Base 50)    
Moisture  
Dew Point 50 °F    
Average Humidity 57    
Maximum Humidity 86    
Minimum Humidity 27    
Precipitation  
Precipitation T in 0.02 in 1.04 in (1951)
Month to date precipitation 0.99 0.50  
Year to date precipitation 13.43 10.03  
Sea Level Pressure  
Sea Level Pressure 30.00 in    
Wind  
Wind Speed 6 mph (South)    
Max Wind Speed 24 mph    
Max Gust Speed 28 mph    
Visibility 10 miles    
Events Rain , Thunderstorm    
T = Trace of Precipitation, MM = Missing Value Source: NWS Daily Summary

Daily Weather History Graph

Daily Weather History Graph

Search for Another Location

Airport:

Trip Planner

Search our weather history database for the weather conditions in past years. The results will help you decide how hot, cold, wet, or windy it might be!

Date:

Astronomy

Aug. 14, 2013 Rise Set
Actual Time 6:04 AM MDT 8:08 PM MDT
Civil Twilight 5:32 AM MDT 8:39 PM MDT
Nautical Twilight 4:53 AM MDT 9:18 PM MDT
Astronomical Twilight 4:11 AM MDT 10:00 PM MDT
Moon 2:26 PM MDT (8/14) No Moon Set
Length of Visible Light 15h 06m
Length of Day
14h 03m
First Quarter, 53% of the Moon is Illuminated
Aug 14
First Quarter
Aug 20
Full
Aug 28
Last Quarter
Sep 5
New
Sep 12
First Quarter

Hourly Weather History & Observations

Time (MDT) Temp. Dew Point Humidity Pressure Visibility Wind Dir Wind Speed Gust Speed Precip Events Conditions
12:53 AM 62.1 °F 51.1 °F 67% 30.02 in 10.0 mi SSE 6.9 mph - N/A   Clear
1:53 AM 62.1 °F 50.0 °F 65% 30.01 in 10.0 mi South 10.4 mph - N/A   Clear
2:53 AM 61.0 °F 51.1 °F 70% 30.01 in 10.0 mi South 10.4 mph - N/A   Clear
3:53 AM 62.1 °F 50.0 °F 65% 30.00 in 10.0 mi SSW 10.4 mph - N/A   Clear
4:53 AM 60.1 °F 48.9 °F 67% 30.03 in 10.0 mi Calm Calm - N/A   Clear
5:53 AM 60.1 °F 48.0 °F 64% 30.04 in 10.0 mi SSE 3.5 mph - N/A   Clear
6:53 AM 61.0 °F 48.0 °F 62% 30.04 in 10.0 mi NNE 3.5 mph - N/A   Clear
7:53 AM 64.9 °F 48.9 °F 56% 30.04 in 10.0 mi Variable 3.5 mph - N/A   Clear
8:53 AM 69.1 °F 50.0 °F 51% 30.04 in 10.0 mi West 6.9 mph - N/A   Clear
9:53 AM 72.0 °F 51.1 °F 48% 30.04 in 10.0 mi WNW 5.8 mph - N/A   Clear
10:53 AM 75.9 °F 48.9 °F 38% 30.00 in 10.0 mi Calm Calm - N/A   Clear
11:53 AM 78.1 °F 48.0 °F 35% 30.00 in 10.0 mi North 4.6 mph - N/A   Clear
12:53 PM 79.0 °F 46.0 °F 31% 29.99 in 10.0 mi West 4.6 mph - N/A   Clear
1:53 PM 82.0 °F 48.0 °F 30% 29.97 in 10.0 mi Variable 3.5 mph - N/A   Scattered Clouds
2:53 PM 84.0 °F 46.0 °F 26% 29.95 in 10.0 mi NNW 8.1 mph - N/A   Partly Cloudy
3:53 PM 82.9 °F 46.0 °F 27% 29.94 in 10.0 mi ENE 4.6 mph - N/A   Scattered Clouds
4:53 PM 80.1 °F 46.9 °F 31% 29.93 in 10.0 mi ENE 3.5 mph - N/A Thunderstorm Scattered Clouds
5:33 PM 64.4 °F 50.0 °F 59% 30.09 in 9.0 mi SSW 19.6 mph 24.2 mph 0.00 in Rain , Thunderstorm Light Thunderstorms and Rain
5:42 PM 66.2 °F 48.2 °F 52% 30.07 in 10.0 mi SSW 16.1 mph 24.2 mph 0.00 in Rain , Thunderstorm Light Thunderstorms and Rain
5:53 PM 66.9 °F 48.9 °F 52% 29.97 in 10.0 mi SSW 21.9 mph 27.6 mph 0.00 in Thunderstorm Thunderstorm
6:11 PM 62.6 °F 51.8 °F 68% 30.08 in 10.0 mi South 11.5 mph - N/A   Partly Cloudy
6:53 PM 64.9 °F 54.0 °F 68% 29.97 in 10.0 mi Calm Calm - N/A   Clear
7:53 PM 66.0 °F 54.0 °F 65% 29.96 in 10.0 mi ESE 5.8 mph - N/A   Clear
8:53 PM 60.1 °F 55.9 °F 86% 29.99 in 10.0 mi SSE 3.5 mph - N/A   Clear
9:53 PM 57.9 °F 54.0 °F 87% 29.99 in 10.0 mi Calm Calm - N/A   Clear
10:53 PM 57.9 °F 53.1 °F 84% 29.99 in 10.0 mi South 8.1 mph - N/A   Clear
11:53 PM 59.0 °F 50.0 °F 72% 29.96 in 10.0 mi South 8.1 mph - N/A   Clear